カタログに戻る

FENGYUN 1C DEB *

運用中SSO
NORAD 46997·DEBRIS·🇨🇳 China

打ち上げ May 10, 1999 から Taiyuan Satellite Launch Center

Loading…

次のパス (今後24時間)

TLE

最新Source: Space-Track

元期: Sep 13, 2026, 08:10 UTC

1 46997U 99025EZX 26256.34085971  .00001382  00000-0  55921-3 0  9997
2 46997  98.5372 296.1249 0024146 246.6674 173.1543 14.29220490663727

AllMySatでFENGYUN 1C DEB *をリアルタイム追跡

Download on the App Store